Location: Newark
(45.9456°N, 15.4064°E)
Time: 04:19:38
(UTC+00:00)

SR - Pass Details

Date: 02 February 2020
Orbit: 575 x 881 km, 66.7° (Epoch: 18 February)

Event Time Altitude Azimuth Distance (km) Brightness Sun altitude
Rises 04:34:56 0° 322° (NW) 3,370 - -18.5°
Reaches altitude 10° 04:37:33 10° 317° (NW) 2,391 - -18.0°
Exits shadow 04:40:18 27° 301° (WNW) 1,456 ? -17.5°
Maximum altitude 04:42:45 46° 246° (WSW) 1,018 ? -17.1°
Drops below altitude 10° 04:47:30 10° 174° (S) 2,182 ? -16.3°
Sets 04:49:49 0° 168° (SSE) 3,047 ? -15.9°
